Regional Weather Roundup
Issued by NWS

Home | Current Version | Previous Version | Graphics & Text | Print | Product List | Glossary On
Versions: 1 2 3 4 5 6 7 8 9 10 11 12 13 14 15 16 17 18 19 20 21 22 23 24 25 26 27 28 29 30 31 32 33 34 35 36 37 38 39 40 41 42 43 44 45 46 47 48 49 50
436
ASUS43 KLMK 110110
RWRKY
KENTUCKY REGIONAL WEATHER ROUNDUP
NATIONAL WEATHER SERVICE LOUISVILLE KY
800 PM EST SAT DEC 10 2016

NOTE "FAIR" INDICATES FEW OR NO CLOUDS BELOW 12,000 FEET
WITH NO SIGNIFICANT WEATHER AND/OR OBSTRUCTIONS TO VISIBILITY.

KYZ001>023-026-027-061>063-070>075-110200-
WESTERN AND SOUTH CENTRAL KENTUCKY

CITY           SKY/WX    TMP DP  RH WIND       PRES   REMARKS
PADUCAH        CLOUDY    37  15  40 SE7       30.37F WCI  32
HENDERSON      CLOUDY    30  16  55 SE8       30.41F WCI  23
OWENSBORO      CLEAR     31  19  61 SE7       30.43F WCI  24
HOPKINSVILLE   CLEAR     31  16  54 E5        30.42F WCI  26
BOWLING GREEN  CLOUDY    29  17  61 CALM      30.45F
GLASGOW        CLOUDY    29  20  71 NE3       30.44F
$$

KYZ024-025-028>034-038-045-046-053-110200-
NORTH CENTRAL KENTUCKY

CITY           SKY/WX    TMP DP  RH WIND       PRES   REMARKS
LOUISVILLE/SDF CLOUDY    31  14  49 SE5       30.45F WCI  26
LOUISVILLE/LOU PTCLDY    32  16  51 SE5       30.46F WCI  27
FORT KNOX      CLEAR     28  15  59 SE3       30.42F
$$

KYZ035>037-039>044-047>052-055>060-089>105-110200-
NORTHEAST KENTUCKY

CITY           SKY/WX    TMP DP  RH WIND       PRES   REMARKS
LEXINGTON      PTCLDY    29  15  56 SE3       30.45F
COVINGTON      CLOUDY    28  17  63 SE5       30.44S WCI  23
FRANKFORT      PTCLDY    29  15  56 CALM      30.44S
$$

KYZ054-064>069-076>088-106>120-110200-
SOUTHEAST KENTUCKY

CITY           SKY/WX    TMP DP  RH WIND       PRES   REMARKS
JACKSON        CLOUDY    28  13  53 CALM      30.43F
LONDON         CLEAR     28  15  58 CALM      30.44F
SOMERSET       PTCLDY    27  18  69 CALM      30.46F
MIDDLESBORO    CLEAR     27  20  75 CALM      30.46S
MONTICELLO     CLOUDY    26  20  77 CALM      30.46F
$$





USA.gov is the U.S. government's official web portal to all federal, state and local government web resources and services.